#timestamp,LO_Frequency,Hit,StdDev 
1634637615.8,286046996.9,P
1634637635.7,286046997.3,Y
1634637655.5,286046998.5,P
1634637675.3,286046998.4,N
1634637695.2,286046998.2,P
1634637715.0,286047000.9,N
1634637715.9,286047000.9,N
1634637735.7,286047000.9,N
1634637755.6,286046998.2,N
1634637775.4,286047000.9,N
1634637795.3,286047001.1,N
1634637815.1,286047001.2,N
1634637816.0,286047001.2,N
1634637835.8,286046998.4,N
1634637855.7,286047000.9,N
1634637875.5,286047000.5,N
1634637895.3,286047001.1,N
1634637915.2,286047000.3,N
1634637935.0,286047000.5,N
1634637935.9,286047000.5,N
1634637955.8,286047000.8,N
1634637975.6,286046998.9,N
1634637995.4,286047000.4,N
1634638015.3,286047000.6,N
1634638035.1,286047000.9,N
1634638055.8,286047002.1,N
1634638075.7,286047002.8,N
1634638095.5,286047001.0,N
1634638115.4,286047000.7,N
1634638135.2,286047001.1,N
1634638155.0,286047000.4,N
1634638155.9,286047000.4,N
1634638175.8,286047000.3,N
1634638195.6,286047001.1,N
1634638215.4,286047000.4,N
1634638235.3,286047001.0,N
1634638255.1,286047000.9,N
1634638275.9,286047001.1,N
1634638295.7,286047000.8,N
1634638315.5,286047001.2,N
1634638335.4,286047000.7,N
1634638355.2,286046998.5,N
1634638375.1,286047001.2,N
1634638376.0,286047001.2,N
1634638395.8,286047000.8,N
1634638415.6,286047001.1,N
1634638435.5,286047001.2,N
1634638455.3,286047001.2,N
1634638475.1,286046998.6,N
1634638495.9,286046998.5,N
1634638515.7,286046998.7,N
1634638535.6,286046999.4,N
1634638555.4,286046998.1,N
1634638575.2,286046998.8,N
1634638595.1,286047000.8,N
1634638596.0,286047000.8,N
1634638615.8,286046999.6,N
1634638635.7,286046997.8,N
1634638655.5,286046997.4,N
1634638675.3,286046997.5,N
1634638695.2,286046997.0,N
1634638715.0,286046999.3,N
1634638715.9,286046999.3,N
1634638735.7,286046998.8,N
1634638755.6,286046998.3,N
1634638775.4,286046999.2,N
1634638795.3,286046996.6,N
1634638815.1,286046997.9,N
1634638816.0,286046997.9,N
1634638835.8,286046997.3,N
1634638855.7,286046997.8,N
1634638875.5,286046999.3,N
1634638895.3,286046996.9,N
1634638915.2,286046999.3,N
1634638935.0,286046997.3,N
1634638935.9,286046997.3,N
1634638955.8,286046997.0,N
1634638975.6,286046996.7,N
1634638995.4,286046995.0,Y
1634639015.3,286046999.4,P
1634639035.1,286047001.2,N
1634639055.9,286047001.0,N
1634639075.7,286046999.9,N
1634639095.5,286047002.8,N
1634639115.4,286047000.0,N
1634639135.2,286047002.7,N
1634639155.0,286046999.7,N
1634639155.9,286046999.7,N
1634639175.8,286047000.9,N
1634639195.6,286046998.4,N
1634639215.5,286046999.6,N
1634639235.3,286046997.2,N
1634639255.1,286046997.4,N
1634639275.9,286046997.5,N
1634639325.7,286046997.2,E
1634639335.7,286046998.7,N
1634639355.5,286047000.8,P
1634639375.3,286047000.3,N
1634639395.2,286046999.8,N
1634639415.0,286047000.0,N
1634639415.9,286047000.0,N
1634639435.8,286046998.1,Y
1634639455.6,286047000.3,P
1634639475.4,286046998.6,P
1634639495.3,286047002.7,P
1634639515.1,286046999.9,N
1634639535.9,286047000.2,N
1634639555.7,286047000.0,N
1634639575.5,286047000.3,N
1634639595.4,286047000.7,N
1634639615.2,286046998.7,N
1634639635.0,286046998.7,N
1634639635.9,286046998.7,N
1634639655.8,286047001.2,N
1634639675.6,286047001.2,N
1634639695.5,286046998.1,N
1634639715.3,286046998.7,N
1634639735.1,286046998.9,N
1634639755.9,286046998.8,N
1634639775.7,286046998.7,N
1634639795.6,286046998.2,N
1634639815.4,286046999.8,N
1634639835.2,286047002.3,N
1634639855.1,286047001.1,N
1634639856.0,286047001.1,N
1634639875.8,286047000.6,N
1634639895.6,286047001.1,N
1634639915.5,286047000.0,N
1634639935.3,286046999.9,N
1634639955.2,286047000.4,N
1634639975.9,286046998.6,N
1634639995.7,286046998.1,N
1634640015.6,286046999.0,N
1634640035.4,286047000.8,N
1634640055.2,286046998.8,N
1634640075.1,286046998.1,N
1634640076.0,286046998.1,N
1634640095.8,286047001.0,N
1634640115.7,286047001.0,N
1634640135.5,286046999.8,N
1634640155.3,286047000.1,N
1634640175.2,286046999.7,N
1634640195.0,286047002.8,N
1634640195.9,286047002.8,N
1634640215.8,286047002.4,N
1634640235.6,286047001.3,N
1634640255.4,286047001.7,N
1634640275.3,286047004.3,Y
1634640295.1,286047003.9,P
1634640315.8,286047004.4,N
1634640335.7,286047001.7,N
1634640355.5,286047001.3,N
1634640375.4,286047001.9,N
1634640395.2,286047001.9,N
1634640415.0,286047001.9,N
1634640415.9,286047001.9,N
1634640435.8,286047002.5,N
1634640455.6,286047002.8,N
1634640475.4,286047000.2,N
1634640495.3,286047001.9,N
1634640515.1,286047001.8,N
1634640535.9,286047002.3,N
1634640555.7,286047002.5,N
1634640575.5,286047001.8,N
1634640595.4,286047001.9,N
1634640615.2,286047001.5,N
1634640635.0,286047002.0,N
1634640635.9,286047002.0,N
1634640655.8,286047001.6,N
1634640675.6,286047001.3,N
1634640695.5,286047001.3,N
1634640715.3,286047003.8,Y
1634640735.1,286047002.5,P
1634640755.9,286047002.2,P
1634640775.7,286047004.4,P
1634640795.6,286047002.6,N
1634640815.4,286047001.8,N
1634640835.2,286047002.3,N
1634640855.1,286047002.7,Y
1634640856.0,286047002.7,P
1634640875.8,286046999.4,P
1634640895.6,286046999.2,N
1634640915.5,286046999.6,N
1634640935.3,286046996.5,N
1634640955.2,286046996.6,N
1634640975.9,286047001.1,N
1634640995.7,286046998.4,N
1634641015.6,286046998.2,N
1634641035.4,286047001.2,N
1634641055.2,286047001.1,N
1634641075.1,286047001.0,N
1634641076.0,286047001.0,N
1634641095.8,286047001.1,N
1634641115.7,286047001.2,N
1634641135.5,286046998.2,N
1634641155.3,286047001.1,N
1634641175.2,286047000.3,N
1634641195.0,286046998.2,N
1634641195.9,286046998.2,N
